Airfield :
LOGIN :

Register | Disclaimer

   EN    FR    IT 

 










Legend :    VFR   Marginal VFR   IFR   Intensive IFR   Very Intensive IFR
Visi :
Ceiling :
>= 8 km
>= 3000ft
5 to 8 km
1000 to 3000 ft
1500m to 5 km
500 to 1000 ft
800 to 1500m
200 to 500 ft
< 800m
< 200 ft
Symbols :   Thunderstorms  Fog  Heavy snow  Heavy precipitations  Wind > 20 kt
SIGMETs :     Misc.  Thunderstorms  Icing  Turbulence  Mountain Waves  Volcanic Ashes







- Airport Elevation : 72 ft
- IATA code : UDE


EHVK - Volkel Airbase

CURRENT METAR :
  • 210355Z AUTO VRB01KT 9999 OVC110 17/14 Q1010 BLU

EXPIRED METARs :
  • 210325Z AUTO 28003KT 9999 OVC110 17/14 Q1010 BLU
  • 210255Z AUTO 31001KT 9999 FEW095 OVC110 18/15 Q1010 BLU
  • 210225Z AUTO 29003KT 9999 OVC110 18/15 Q1010 BLU
  • 210155Z AUTO 27004KT 240V300 9999 OVC110 18/15 Q1010 BLU
  • 210125Z AUTO 28003KT 9999 SCT092 OVC110 18/15 Q1011 BLU

Expired Forecast.
No reported NOTAMs for that airfield.



MET'MAP, your aeronautical weather chart ! - Copyright ORBIFLY December 2007 - Disclaimer

ORBIFLY MET'MAP TEAM :

Programming & Development : Alexandra Zaïnal
Concept & Development : Baudouin d'Aumeries
Co-Development & Prog : Marc-Olivier Méhu
Technical & hardware support : Manuel Goepfert

Contact : metmap@orbifly.com




SOURCES & CREDITS :

   NOAA